User: anonymous
Location: Fort Wayne
(41.1310°N, 85.1290°W)
Time: 03:24:23
(UTC-04:00)
Language:

BREEZE-M DEB (TANK) - Orbit

View from above orbital plane
View from above orbital plane
View from above satellite
View from above satellite

Ground track
Ground track

The orbit data is extracted from the following two-line orbital elements,

1 27821U 03024B   14210.71696443  .00004856  00000-0  46052-3 0  4513
2 27821 049.5580 128.1663 5021319 317.0590 017.7192 05.62544684220371
Epoch (UTC): 29 July 2014 17:12:25
Eccentricity: 0.5021319
inclination: 49.5580°
perigee height: 270 km
apogee height: 13682 km
right ascension of ascending node: 128.1663°
argument of perigee: 317.0590°
revolutions per day: 5.62544684
mean anomaly at epoch: 17.7192°
orbit number at epoch: 22037

The dashed part of the orbit path shows where the satellite is in the earth's shadow,  

DLR